Flag for Sweden Weather past 2 weeks in Stockholm, Sweden

Now
25 °F

Clear.


Feels Like: 19 °F
Forecast: 31 / 36 °F
Wind: 5 mph from Southwest

Location: Stockholm Bromma Airport

Current Time: Dec 21, 2014 at 9:19:54 PM

Latest Report: Dec 21, 2014 at 8:50 PM


Visibility: 10 mi

Pressure: 29.56 "Hg

Humidity: 93%

Dew point: 23 °F

Location of StockholmLocation

Historic Weather in Stockholm — Graph

°F

Stockholm temperature yesterday

Maximum temperature yesterday: 37 °F (at 12:20 AM)
Minimum temperature yesterday: 28 °F (at 9:20 PM)
Average temperature yesterday: 34 °F

Past Weeks' High & Low Weather Summary

 TemperatureHumidityPressure
High41 °F (Dec 7, 6:20 PM)100% (Dec 6, 8:50 PM)30.04 "Hg (Dec 6, 8:50 PM)
Low23 °F (Dec 18, 1:50 AM)60% (Dec 21, 11:50 AM)28.77 "Hg (Dec 13, 1:20 AM)
Average36 °F88%29.45 "Hg
* Reported Dec 6 8:20 PM — Dec 21 8:20 PM, Stockholm, Weather by CustomWeather, © 2014

Note: Actual official high and low records may vary slightly from our data, if they occured in-between our weather recording intervals... More about our weather records

Advertising

Stockholm weather history for previous 24 hours

 ConditionsComfort  
Time TempWeatherWind HumidityBarometerVisibility
8:20 PM
Dec 21
25 °FClear.3 mph86%29.56 "Hg10 mi
7:50 PM27 °FClear.5 mph86%29.56 "Hg10 mi
7:20 PM27 °FClear.5 mph86%29.56 "Hg10 mi
6:50 PM27 °FClear.6 mph86%29.59 "Hg10 mi
6:20 PM27 °FClear.8 mph86%29.59 "Hg10 mi
5:50 PM30 °FClear.8 mph75%29.59 "Hg10 mi
5:20 PM30 °FClear.9 mph75%29.59 "Hg10 mi
4:50 PM30 °FClear.7 mph75%29.59 "Hg10 mi
4:20 PM30 °FClear.9 mph75%29.62 "Hg10 mi
3:50 PM30 °FClear.9 mph75%29.62 "Hg10 mi
3:20 PM32 °FClear.9 mph69%29.62 "Hg10 mi
2:50 PM32 °FClear.8 mph69%29.62 "Hg10 mi
2:20 PM32 °FSunny.8 mph69%29.62 "Hg10 mi
1:50 PM32 °FSunny.8 mph69%29.62 "Hg10 mi
1:20 PM34 °FSunny.10 mph65%29.65 "Hg10 mi
12:50 PM34 °FSunny.8 mph65%29.65 "Hg10 mi
12:20 PM34 °FSunny.15 mph60%29.65 "Hg10 mi
11:50 AM34 °FSunny.16 mph60%29.65 "Hg10 mi
11:20 AM32 °FSunny.14 mph64%29.65 "Hg10 mi
10:50 AM32 °FSunny.13 mph69%29.65 "Hg10 mi
10:20 AM32 °FChilly.9 mph69%29.65 "HgN/A
9:50 AM30 °FChilly.10 mph75%29.65 "HgN/A
9:20 AM30 °FChilly.12 mph75%29.65 "HgN/A
8:50 AM30 °FChilly.12 mph75%29.65 "HgN/A
8:20 AM30 °FChilly.12 mph75%29.65 "HgN/A
7:50 AM30 °FChilly.9 mph75%29.62 "HgN/A
7:20 AM30 °FChilly.10 mph80%29.62 "HgN/A
6:50 AM30 °FChilly.12 mph80%29.62 "HgN/A
6:20 AM30 °FChilly.9 mph80%29.59 "HgN/A
5:50 AM30 °FChilly.10 mph80%29.59 "HgN/A
5:20 AM30 °FChilly.12 mph80%29.59 "HgN/A
4:50 AM30 °FPassing clouds.12 mph80%29.56 "HgN/A
4:20 AM30 °FPassing clouds.10 mph80%29.56 "HgN/A
3:50 AM30 °FPassing clouds.12 mph80%29.53 "HgN/A
3:20 AM30 °FPassing clouds.10 mph80%29.53 "HgN/A
2:50 AM30 °FPassing clouds.9 mph80%29.50 "HgN/A
2:20 AM30 °FPassing clouds.8 mph80%29.50 "HgN/A
1:20 AM30 °FChilly.14 mph80%29.47 "HgN/A
12:50 AM28 °FChilly.8 mph86%29.45 "HgN/A
12:20 AM28 °FChilly.9 mph86%29.45 "HgN/A
11:50 PM
Dec 20
28 °FChilly.6 mph86%29.45 "HgN/A
11:20 PM28 °FChilly.7 mph86%29.42 "HgN/A
10:20 PM28 °FChilly.7 mph86%29.39 "HgN/A
9:50 PM28 °FChilly.6 mph86%29.39 "HgN/A
9:20 PM28 °FChilly.6 mph86%29.36 "HgN/A
Weather by CustomWeather, © 2014

See weather overviewHow to use our weather pages